| time (UTC) | temp F | wind direction | speed MPH | gust MPH | rain 1hr in | rain 24hr in | rain mn in | humidity % | barometer mb |
| 20260502191607 | 62 | 331 | 4.0 | 14.0 | 0.00 | 0.00 | 0.00 | 42 | 1016.7 |
| 20260502190059 | 63 | 337 | 6.0 | 13.0 | 0.00 | 0.00 | 0.00 | 41 | 1016.7 |
| 20260502184602 | 63 | 334 | 10.0 | 19.0 | 0.00 | 0.00 | 0.00 | 40 | 1016.8 |
| 20260502183057 | 64 | 355 | 7.0 | 16.0 | 0.00 | 0.00 | 0.00 | 40 | 1016.7 |
| 20260502181556 | 65 | 341 | 7.0 | 15.0 | 0.00 | 0.00 | 0.00 | 41 | 1016.9 |
| 20260502163051 | 60 | 307 | 6.0 | 11.0 | 0.00 | 0.00 | 0.00 | 51 | 1017.1 |
| 20260502161544 | 61 | 320 | 4.0 | 11.0 | 0.00 | 0.00 | 0.00 | 55 | 1017.1 |
| 20260502151551 | 59 | 10 | 0.0 | 5.0 | 0.00 | 0.00 | 0.00 | 57 | 1016.9 |
| 20260502123105 | 47 | 45 | 1.0 | 9.0 | 0.00 | 0.00 | 0.00 | 82 | 1016.6 |
| 20260502121558 | 45 | 52 | 0.0 | 3.0 | 0.00 | 0.00 | 0.00 | 79 | 1016.5 |
| 20260502114557 | 42 | 53 | 2.0 | 5.0 | 0.00 | 0.00 | 0.00 | 75 | 1016.3 |
| 20260502113053 | 44 | 53 | 2.0 | 6.0 | 0.00 | 0.00 | 0.00 | 75 | 1016.0 |
| 20260502111553 | 43 | 53 | 1.0 | 4.0 | 0.00 | 0.00 | 0.00 | 74 | 1016.1 |
| 20260502110049 | 43 | 53 | 1.0 | 4.0 | 0.00 | 0.00 | 0.00 | 75 | 1016.1 |
| 20260502104544 | 44 | 53 | 0.0 | 0.0 | 0.00 | 0.00 | 0.00 | 75 | 1016.0 |
| 20260502103041 | 45 | 53 | 0.0 | 0.0 | 0.00 | 0.00 | 0.00 | 71 | 1015.7 |
| 20260502101551 | 45 | 53 | 0.0 | 0.0 | 0.00 | 0.00 | 0.00 | 70 | 1015.7 |
| 20260502100103 | 45 | 53 | 0.0 | 3.0 | 0.00 | 0.00 | 0.00 | 69 | 1015.6 |
| 20260502071522 | 46 | 63 | 4.0 | 6.0 | 0.00 | 0.00 | 0.00 | 65 | 1014.6 |
| 20260502070019 | 46 | 63 | 3.0 | 5.0 | 0.00 | 0.00 | 0.00 | 63 | 1014.2 |
| 20260502054511 | 50 | 54 | 4.0 | 9.0 | 0.00 | 0.00 | 0.00 | 55 | 1013.4 |
| 20260502053011 | 52 | 54 | 5.0 | 10.0 | 0.00 | 0.00 | 0.00 | 52 | 1013.2 |
| 20260502051521 | 49 | 64 | 4.0 | 8.0 | 0.00 | 0.00 | 0.00 | 57 | 1012.8 |
| 20260502050011 | 48 | 67 | 4.0 | 6.0 | 0.00 | 0.00 | 0.00 | 60 | 1012.3 |
| 20260502044508 | 48 | 67 | 3.0 | 6.0 | 0.00 | 0.00 | 0.00 | 54 | 1012.0 |
| 20260502043008 | 49 | 67 | 3.0 | 5.0 | 0.00 | 0.00 | 0.00 | 53 | 1011.7 |
| 20260502041518 | 50 | 69 | 1.0 | 2.0 | 0.00 | 0.00 | 0.00 | 56 | 1011.5 |
| 20260502040013 | 51 | 69 | 2.0 | 4.0 | 0.00 | 0.00 | 0.00 | 45 | 1011.5 |
| 20260502034508 | 53 | 69 | 2.0 | 6.0 | 0.00 | 0.00 | 0.00 | 41 | 1011.5 |
| 20260502033007 | 57 | 68 | 3.0 | 5.0 | 0.00 | 0.00 | 0.00 | 38 | 1011.4 |
| 20260502031506 | 56 | 68 | 5.0 | 8.0 | 0.00 | 0.00 | 0.00 | 38 | 1011.2 |
| 20260502030005 | 58 | 67 | 5.0 | 6.0 | 0.00 | 0.00 | 0.00 | 37 | 1011.1 |
| 20260502024504 | 61 | 51 | 5.0 | 7.0 | 0.00 | 0.00 | 0.00 | 35 | 1011.1 |
| 20260502023003 | 64 | 28 | 3.0 | 4.0 | 0.00 | 0.00 | 0.00 | 33 | 1011.0 |
| 20260502021608 | 67 | 20 | 0.0 | 2.0 | 0.00 | 0.00 | 0.00 | 32 | 1010.9 |
| 20260502020059 | 69 | 20 | 0.0 | 3.0 | 0.00 | 0.00 | 0.00 | 32 | 1010.9 |
| 20260502014557 | 70 | 20 | 2.0 | 4.0 | 0.00 | 0.00 | 0.00 | 27 | 1011.0 |
| 20260502013055 | 71 | 20 | 3.0 | 5.0 | 0.00 | 0.00 | 0.00 | 26 | 1011.1 |
| 20260502011554 | 71 | 18 | 5.0 | 10.0 | 0.00 | 0.00 | 0.00 | 26 | 1011.1 |
| 20260502010107 | 72 | 5 | 8.0 | 11.0 | 0.00 | 0.00 | 0.00 | 23 | 1011.3 |
| 20260502004558 | 72 | 26 | 5.0 | 11.0 | 0.00 | 0.00 | 0.00 | 25 | 1011.4 |
| 20260502003049 | 72 | 24 | 6.0 | 13.0 | 0.00 | 0.00 | 0.00 | 23 | 1011.4 |
| 20260502001548 | 73 | 13 | 9.0 | 13.0 | 0.00 | 0.00 | 0.00 | 24 | 1011.6 |
| 20260502000049 | 72 | 349 | 10.0 | 14.0 | 0.00 | 0.00 | 0.00 | 23 | 1011.6 |
| 20260501234548 | 72 | 306 | 3.0 | 10.0 | 0.00 | 0.00 | 0.00 | 23 | 1011.6 |
| 20260501233047 | 74 | 323 | 9.0 | 14.0 | 0.00 | 0.00 | 0.00 | 23 | 1011.6 |
| 20260501231545 | 75 | 307 | 8.0 | 15.0 | 0.00 | 0.00 | 0.00 | 21 | 1011.7 |
| 20260501230056 | 74 | 314 | 8.0 | 17.0 | 0.00 | 0.00 | 0.00 | 23 | 1011.7 |
| 20260501224543 | 75 | 336 | 13.0 | 19.0 | 0.00 | 0.00 | 0.00 | 21 | 1011.8 |
| 20260501223046 | 74 | 317 | 7.0 | 14.0 | 0.00 | 0.00 | 0.00 | 21 | 1011.8 |
| 20260501221542 | 74 | 287 | 7.0 | 16.0 | 0.00 | 0.00 | 0.00 | 19 | 1011.8 |
| 20260501220046 | 76 | 319 | 10.0 | 16.0 | 0.00 | 0.00 | 0.00 | 19 | 1012.0 |
| 20260501214551 | 76 | 325 | 14.0 | 18.0 | 0.00 | 0.00 | 0.00 | 18 | 1012.0 |
| 20260501213036 | 74 | 334 | 9.0 | 15.0 | 0.00 | 0.00 | 0.00 | 21 | 1012.2 |
| 20260501211538 | 75 | 325 | 10.0 | 17.0 | 0.00 | 0.00 | 0.00 | 19 | 1012.5 |
| 20260501210042 | 74 | 292 | 8.0 | 16.0 | 0.00 | 0.00 | 0.00 | 21 | 1012.4 |
| 20260501204552 | 74 | 329 | 12.0 | 17.0 | 0.00 | 0.00 | 0.00 | 22 | 1012.5 |
| 20260501203029 | 73 | 291 | 7.0 | 17.0 | 0.00 | 0.00 | 0.00 | 25 | 1012.5 |
| 20260501201527 | 73 | 307 | 7.0 | 21.0 | 0.00 | 0.00 | 0.00 | 22 | 1012.6 |
| 20260501200026 | 72 | 288 | 8.0 | 15.0 | 0.00 | 0.00 | 0.00 | 22 | 1012.8 |
| 20260501194522 | 72 | 302 | 8.0 | 14.0 | 0.00 | 0.00 | 0.00 | 24 | 1012.8 |
| 20260501193022 | 73 | 304 | 7.0 | 14.0 | 0.00 | 0.00 | 0.00 | 24 | 1012.9 |